Wind_Speed
20 18 17 15 14 13 13 12 10 3 1 3 8 10 11 13 13 11 11 15 15 19 19 19 19 19 22 21 23 24 24 22 16 25 27 26 24 26 27 30 30 30 30
16 14 13 12 11 10 7 3 1 1 4 6 7 7 6 6 9 12 14 16 18 19 21 20 20 20 24 21 23 23 25 25 25 22 25 24 25 25 27 25 28 28 30
14 13 12 11 8 5 6 5 3 2 1 2 2 4 7 9 11 13 11 15 18 20 20 20 22 21 20 21 21 23 25 25 25 24 26 27 26 24 24 24 25 23 22
14 13 12 9 9 9 8 6 5 3 3 3 4 6 8 10 9 12 14 15 18 20 20 21 23 20 17 20 21 21 22 22 23 21 25 25 22 26 20 20 21 23 25
16 14 14 13 12 10 9 8 6 4 3 4 5 6 7 9 12 15 15 16 19 19 20 20 20 23 22 19 17 22 21 24 24 24 23 23 22 20 18 21 20 22 24
19 19 17 15 13 11 9 7 6 4 4 5 6 8 8 6 12 16 18 18 16 17 18 20 19 20 19 18 19 22 25 28 26 24 23 21 22 20 21 18 21 18 10
21 19 17 16 13 10 8 7 5 5 5 5 7 9 7 7 12 19 18 16 15 14 17 17 15 14 18 20 23 25 25 25 26 31 24 22 22 23 22 26 24 20 20
22 20 18 15 12 9 7 6 6 5 5 4 5 6 4 6 12 20 19 15 13 15 16 12 13 14 15 23 25 25 22 21 17 13 15 21 25 30 28 29 29 24 20
22 20 18 15 13 10 8 6 5 4 4 4 5 3 3 5 12 18 19 15 14 16 15 13 16 16 24 24 22 22 20 18 22 19 21 20 23 25 21 22 22 17 18
22 20 18 14 10 8 10 8 5 2 3 4 5 5 8 5 12 18 20 14 15 17 16 17 16 22 31 24 20 19 21 22 29 27 25 20 21 22 21 16 20 18 20
22 21 19 17 17 10 8 9 5 2 3 4 5 3 4 5 6 17 21 14 15 16 16 16 18 28 24 22 19 19 19 24 23 22 21 20 21 20 22 22 24 25 23
21 20 17 12 11 13 10 8 5 2 3 3 4 5 6 3 9 19 22 16 17 15 15 16 18 26 23 19 20 20 20 19 16 20 20 20 23 25 25 27 26 28 34
22 21 19 15 10 12 10 7 7 5 5 6 8 7 8 8 11 17 19 17 16 16 17 16 19 24 24 22 24 22 21 17 20 20 21 22 23 26 26 23 25 38 41
23 20 17 14 11 9 8 7 9 7 7 8 9 8 8 9 12 15 16 15 16 16 17 13 15 19 19 23 24 22 17 20 21 21 22 22 25 24 24 24 25 33 34
21 19 16 14 12 11 9 10 12 12 11 10 8 8 8 9 10 13 14 13 15 14 17 15 16 18 22 25 22 21 20 22 22 23 23 23 24 23 25 29 24 32 31
20 16 15 13 13 13 12 13 13 11 12 12 12 7 4 8 11 13 12 10 16 15 16 16 15 18 19 21 22 22 22 23 24 24 23 23 25 24 25 26 26 27 31
16 16 14 11 10 11 8 11 10 7 5 5 5 5 11 7 12 14 11 12 13 14 15 16 17 18 19 20 21 22 22 23 24 24 23 24 24 26 25 25 25 24 29
15 13 11 9 9 9 7 5 4 6 7 10 6 4 8 8 8 12 14 13 12 12 14 15 17 18 19 20 21 22 23 24 25 25 24 24 25 25 25 25 25 23 20
16 12 10 9 6 6 5 4 4 4 3 2 8 6 3 7 4 6 10 11 12 13 14 15 16 17 18 19 21 21 22 24 24 25 24 24 24 25 25 26 27 26 22
12 12 11 9 6 8 7 5 4 3 1 2 2 4 5 3 3 6 8 10 11 13 14 15 15 16 18 19 21 22 22 23 25 25 24 24 24 25 25 25 26 26 23
10 8 4 7 8 6 5 3 2 1 2 1 6 5 3 3 4 6 8 9 10 12 14 15 16 17 18 18 20 21 22 23 24 25 25 24 27 26 27 25 25 25 25
11 12 10 8 6 6 4 3 3 3 2 1 4 5 3 1 4 5 7 8 10 10 12 13 15 17 19 19 20 21 22 23 24 23 25 23 28 27 28 26 27 24 25
9 10 9 6 4 5 3 6 4 4 3 2 1 3 3 3 4 5 7 8 9 11 12 13 15 17 19 18 18 19 20 23 24 21 25 23 28 28 28 27 27 26 26
11 8 7 5 6 5 7 5 3 1 1 2 3 2 2 1 3 4 5 6 8 9 10 11 14 16 19 18 18 17 18 21 22 19 24 22 25 25 26 26 27 26 26
10 8 6 6 4 6 4 5 6 7 7 5 4 3 3 1 1 4 5 6 7 8 10 11 13 15 18 18 19 19 20 18 18 22 25 21 21 22 23 23 25 24 25
12 8 7 7 7 7 6 8 6 6 6 7 5 5 4 2 1 2 3 5 6 7 9 10 12 14 17 17 20 21 20 17 19 20 20 19 21 20 23 23 23 23 24
Wind_Direction
210 213 215 220 226 232 240 249 259 233 251 283 293 291 297 304 307 308 314 308 310 312 308 309 314 307 298 301 306 300 292 303 306 304 302 299 309 304 293 292 291 291 287
202 205 207 212 224 230 230 245 54 251 266 275 301 320 333 324 319 314 312 317 314 316 313 311 306 316 318 309 303 313 309 299 294 298 302 305 302 302 294 289 291 292 291
189 191 197 195 192 192 145 138 191 232 295 44 6 336 328 329 325 317 321 329 314 311 313 317 311 310 308 306 307 307 305 309 307 308 304 294 297 295 296 298 294 291 300
176 179 170 163 146 126 128 129 110 96 73 28 355 344 337 338 17 6 343 328 321 317 314 311 306 315 314 314 308 301 301 300 295 291 285 292 301 297 307 302 315 305 307
157 140 124 124 121 123 121 113 100 79 51 13 360 356 343 51 22 0 344 329 318 308 311 313 318 319 317 315 303 305 307 302 298 286 292 294 305 315 318 317 310 310 307
130 130 130 125 123 120 115 107 95 69 41 26 18 15 43 32 360 348 343 326 315 317 328 327 325 317 333 329 309 303 303 295 286 286 289 294 301 310 310 308 305 305 308
134 131 130 129 124 120 114 105 88 64 42 27 28 32 52 15 340 338 336 320 303 311 323 326 331 328 326 324 323 314 307 306 297 274 275 287 298 297 299 302 297 297 296
133 133 128 124 116 111 105 87 75 66 52 34 36 38 49 32 357 344 342 336 326 330 331 341 347 338 329 332 325 318 317 319 318 325 298 290 293 301 299 292 289 289 290
137 134 130 128 126 125 106 89 69 66 55 53 26 63 75 44 8 356 354 343 344 333 335 348 349 336 332 332 330 325 327 325 330 325 315 315 316 313 310 293 289 301 293
139 135 131 127 121 111 116 106 87 48 74 33 21 6 102 50 353 355 5 354 349 341 343 344 337 345 340 343 339 333 327 326 331 338 343 324 319 316 323 311 309 309 310
142 133 128 132 130 122 112 97 84 43 45 37 25 353 74 45 358 4 11 9 357 340 343 339 342 340 347 352 350 344 331 327 331 331 323 317 327 325 329 329 330 326 311
134 123 118 121 125 121 115 107 101 50 88 74 38 350 32 64 36 7 4 15 2 349 343 337 341 345 353 357 350 351 352 349 337 333 322 338 331 332 328 324 323 323 320
127 123 124 124 130 118 111 119 126 82 45 32 26 4 4 357 2 3 356 7 355 344 336 320 344 344 351 357 5 3 5 345 339 338 341 333 335 323 323 338 339 333 321
129 127 126 130 126 118 115 112 84 64 55 50 31 4 359 5 3 357 354 352 354 350 340 336 344 351 341 358 2 5 351 353 347 345 338 333 333 335 334 345 329 334 327
133 132 135 137 124 110 96 91 100 78 70 56 34 9 2 4 356 351 348 347 349 345 327 332 353 355 349 348 357 2 359 355 354 346 341 342 338 342 340 335 332 329 332
135 143 147 144 160 143 137 110 105 89 72 65 56 58 17 347 1 358 1 359 9 356 328 358 2 359 354 360 357 356 357 354 352 347 346 347 344 342 341 336 336 337 337
137 137 145 157 148 138 149 155 146 133 126 106 86 54 25 24 27 24 14 350 350 353 10 359 3 5 0 359 356 355 353 351 349 350 349 350 346 343 340 339 336 339 344
133 142 147 138 152 151 146 139 124 143 171 189 180 185 8 7 16 30 23 10 23 25 11 8 1 3 2 356 355 353 350 351 353 351 351 351 348 337 340 341 340 340 339
141 145 148 150 145 139 154 157 130 112 81 71 148 178 344 332 336 20 31 22 16 12 9 2 3 0 359 356 353 351 348 349 352 350 351 350 347 336 344 340 341 342 349
152 154 153 156 157 189 179 186 144 141 150 90 83 29 333 350 51 34 34 25 21 12 8 358 0 1 359 355 354 351 348 352 353 352 349 348 338 339 342 339 345 346 351
142 163 212 177 184 196 204 195 169 211 167 113 107 58 83 341 40 40 35 32 21 16 5 0 355 1 1 359 356 353 351 352 352 350 347 344 332 349 341 348 349 354 353
166 162 193 220 187 186 220 216 220 224 207 154 131 116 78 342 37 40 36 30 22 18 8 4 356 0 2 360 358 355 354 351 348 348 346 342 334 356 345 354 352 1 354
188 169 188 201 196 136 185 246 224 211 193 181 176 107 96 73 56 36 39 28 22 13 9 3 0 359 0 0 0 358 356 349 344 343 342 339 338 355 349 355 356 2 358
204 176 181 190 204 201 205 199 168 200 216 180 170 127 106 71 68 66 39 30 28 12 7 8 3 1 0 1 0 360 351 348 345 337 335 331 335 352 352 355 357 3 4
189 185 187 201 167 218 206 205 202 188 192 194 179 162 145 159 68 54 40 27 24 12 6 8 9 5 2 3 4 0 358 1 358 348 342 335 349 357 356 356 358 3 8
186 184 178 191 197 213 212 207 199 200 195 200 188 183 173 195 142 83 57 39 21 15 11 11 11 13 11 8 7 14 12 10 4 1 357 2 360 358 2 359 1 6 8
Height
803 806 810 813 815 817 818 819 820 821 822 823 825 824 824 823 822 821 819 817 814 812 810 807 804 803 800 797 794 790 785 780 775 769 770 766 763 760 758 755 752 748 744
799 803 806 810 812 814 816 817 820 821 823 823 824 823 823 822 821 820 818 816 813 810 808 805 801 799 796 795 791 787 784 782 776 768 766 762 760 757 753 751 746 741 737
796 801 804 807 810 812 814 817 820 821 822 823 823 823 822 821 820 818 816 814 812 809 806 802 799 797 794 792 791 787 783 780 776 770 766 761 757 753 747 745 741 736 732
795 799 802 806 810 813 816 818 820 822 822 823 823 822 821 821 819 818 816 814 811 808 805 803 800 795 792 789 787 785 782 779 776 771 764 757 752 747 743 740 736 732 728
793 798 804 808 812 815 817 819 821 823 823 822 821 821 821 820 819 818 816 813 811 806 802 799 798 795 791 788 786 782 779 775 770 764 757 750 745 743 740 738 735 729 724
795 801 806 809 813 816 819 820 821 822 822 822 822 821 821 822 820 818 817 814 809 805 802 799 797 794 790 787 782 779 776 772 766 760 754 751 744 741 739 736 733 727 719
795 801 805 809 813 816 817 819 820 821 822 822 822 822 823 822 820 819 817 812 809 805 802 798 795 792 788 785 780 774 770 765 760 755 751 748 744 740 737 733 728 723 718
795 800 804 809 814 817 819 821 821 820 820 822 823 823 821 821 820 818 815 811 807 805 801 797 796 792 788 784 779 771 766 761 755 751 749 745 742 737 735 730 724 718 714
793 798 802 806 810 814 816 819 820 821 821 819 820 820 820 820 820 817 814 809 807 806 800 796 794 792 788 781 777 769 764 759 753 749 746 742 737 732 729 725 720 716 708
792 796 800 804 810 814 811 815 818 821 820 819 820 820 821 818 819 816 812 810 807 806 802 798 793 790 785 779 774 770 763 758 751 743 739 738 734 730 726 722 718 713 708
790 792 796 799 801 811 816 813 819 821 822 820 820 819 819 819 817 814 812 810 807 805 803 798 795 789 784 779 774 770 765 757 751 746 742 736 733 728 725 721 718 714 708
789 792 798 804 807 806 811 813 818 819 819 818 819 818 817 816 818 814 811 809 807 805 804 800 796 789 783 778 774 769 763 757 753 748 741 737 733 730 725 720 715 710 703
787 792 798 803 809 808 811 814 814 816 816 817 817 818 818 818 817 815 811 810 808 805 804 800 794 790 784 777 771 766 761 757 753 748 743 740 736 730 723 718 713 706 695
787 793 798 805 809 810 812 814 815 817 816 815 818 820 820 819 819 816 813 810 807 804 802 798 794 790 785 779 770 765 764 760 756 752 747 741 736 729 723 718 711 702 691
787 792 799 805 810 812 815 815 817 819 820 819 822 822 824 822 820 816 812 810 806 802 800 796 792 789 785 778 773 769 765 762 758 753 748 742 736 731 724 718 711 702 692
786 792 796 802 805 809 816 816 817 818 818 821 823 824 824 823 819 816 812 809 806 803 801 799 792 790 785 781 778 773 768 764 760 755 749 744 739 732 726 718 710 703 692
786 793 798 801 806 808 812 812 816 818 819 821 822 824 822 821 817 814 812 809 806 805 801 801 797 792 789 785 781 777 772 767 762 757 751 746 742 735 726 718 710 703 694
792 797 799 804 808 809 810 811 810 811 815 820 821 823 822 820 818 816 812 808 806 804 803 801 801 797 792 789 784 780 776 770 765 759 754 749 743 736 727 718 710 702 695
793 797 801 804 808 809 811 812 811 812 813 814 818 820 820 818 817 815 811 810 809 808 806 804 800 798 795 792 788 783 778 773 768 762 757 752 746 737 729 720 711 702 696
793 795 798 803 809 809 810 809 810 811 812 814 816 820 820 815 817 816 814 813 811 811 808 808 803 800 796 793 789 785 779 774 770 765 760 755 747 737 730 721 714 705 698
795 801 803 798 803 806 808 810 809 811 811 813 816 818 819 817 818 816 814 813 814 811 812 810 807 801 797 794 791 787 782 777 773 769 763 757 747 739 731 724 716 709 701
790 796 801 800 800 802 806 808 810 812 814 813 815 818 817 818 818 818 817 816 815 813 812 810 809 805 800 795 792 788 784 781 777 772 766 760 749 742 734 726 719 712 705
790 786 794 797 799 801 805 807 808 810 812 814 816 815 815 817 818 819 817 817 816 816 814 813 811 808 803 798 794 791 787 784 778 774 769 763 753 746 738 730 724 717 711
790 788 790 795 798 800 800 803 806 811 812 813 816 815 816 818 818 818 817 816 814 816 815 812 812 810 806 801 796 792 789 784 779 775 769 764 757 749 743 735 729 722 717
790 789 791 795 795 799 802 802 804 808 811 814 814 814 816 818 818 817 817 817 815 817 817 815 811 810 808 804 798 793 788 783 778 775 768 763 759 753 749 741 736 728 723
786 789 789 792 794 798 800 802 804 807 809 812 812 813 814 817 816 814 814 815 815 815 815 815 813 810 809 805 799 793 788 783 778 774 769 766 762 757 753 746 740 734 729